CW1053 Weather Reports


Display with metric or nautical units.
time (UTC)temp
F
wind
direction
speed
MPH
gust
MPH
rain 1hr
in
rain 24hr
in
rain mn
in
humidity
%
barometer
mb
20260504205007 73 235 1.0 4.0 0.00 0.00 0.00 31 1009.9
20260504204523 73 264 2.0 4.0 0.00 0.00 0.00 32 1010.0
20260504204007 73 222 2.0 5.0 0.00 0.00 0.00 30 1010.0
20260504203512 73 247 2.0 5.0 0.00 0.00 0.00 30 1010.0
20260504203027 73 253 2.0 3.0 0.00 0.00 0.00 30 1009.8
20260504202504 73 266 1.0 6.0 0.00 0.00 0.00 31 1009.9
20260504202003 72 235 1.0 6.0 0.00 0.00 0.00 31 1010.0
20260504201517 72 237 2.0 8.0 0.00 0.00 0.00 30 1010.1
20260504201006 73 266 2.0 8.0 0.00 0.00 0.00 30 1010.1
20260504200507 72 222 2.0 4.0 0.00 0.00 0.00 31 1010.0
20260504200023 72 238 2.0 5.0 0.00 0.00 0.00 32 1010.0
20260504195506 72 222 2.0 5.0 0.00 0.00 0.00 31 1010.0
20260504195008 72 258 1.0 5.0 0.00 0.00 0.00 33 1010.1
20260504194524 72 231 1.0 5.0 0.00 0.00 0.00 32 1010.2
20260504194009 72 275 1.0 4.0 0.00 0.00 0.00 32 1010.3
20260504193509 71 273 2.0 4.0 0.00 0.00 0.00 32 1010.3
20260504193026 72 250 1.0 5.0 0.00 0.00 0.00 31 1010.3
20260504192513 71 235 2.0 6.0 0.00 0.00 0.00 31 1010.3
20260504192009 71 269 1.0 6.0 0.00 0.00 0.00 32 1010.5
20260504191515 71 253 2.0 4.0 0.00 0.00 0.00 34 1010.5
20260504191008 71 256 1.0 5.0 0.00 0.00 0.00 34 1010.6
20260504190507 71 242 2.0 5.0 0.00 0.00 0.00 34 1010.7
20260504190020 71 254 1.0 7.0 0.00 0.00 0.00 33 1010.8
20260504185507 71 268 2.0 7.0 0.00 0.00 0.00 34 1010.8
20260504185006 70 254 2.0 4.0 0.00 0.00 0.00 35 1010.9
20260504184536 70 254 1.0 6.0 0.00 0.00 0.00 35 1011.0
20260504184008 70 257 2.0 6.0 0.00 0.00 0.00 35 1011.2
20260504183510 70 261 2.0 4.0 0.00 0.00 0.00 35 1011.1
20260504183023 70 214 2.0 6.0 0.00 0.00 0.00 35 1011.1
20260504182507 70 221 1.0 6.0 0.00 0.00 0.00 35 1011.3
20260504182011 69 269 1.0 4.0 0.00 0.00 0.00 35 1011.2
20260504181526 69 276 2.0 5.0 0.00 0.00 0.00 36 1011.4
20260504181011 69 233 2.0 5.0 0.00 0.00 0.00 34 1011.4
20260504180512 69 268 2.0 5.0 0.00 0.00 0.00 35 1011.5
20260504180018 69 227 1.0 5.0 0.00 0.00 0.00 36 1011.6
20260504175507 69 251 1.0 6.0 0.00 0.00 0.00 37 1011.5
20260504175009 69 242 2.0 6.0 0.00 0.00 0.00 36 1011.6
20260504174520 69 250 1.0 5.0 0.00 0.00 0.00 35 1011.5
20260504174007 69 264 1.0 5.0 0.00 0.00 0.00 36 1011.6
20260504173507 69 250 2.0 5.0 0.00 0.00 0.00 35 1011.6
20260504173022 68 256 1.0 4.0 0.00 0.00 0.00 37 1011.6
20260504172508 68 245 2.0 6.0 0.00 0.00 0.00 37 1011.7
20260504172008 68 258 2.0 6.0 0.00 0.00 0.00 35 1011.8
20260504171526 68 263 1.0 4.0 0.00 0.00 0.00 38 1011.8
20260504171011 68 276 1.0 5.0 0.00 0.00 0.00 36 1011.9
20260504170508 68 267 3.0 5.0 0.00 0.00 0.00 35 1011.9
20260504151010 66 267 2.0 4.0 0.00 0.00 0.00 39 1013.7
20260504150511 66 261 1.0 4.0 0.00 0.00 0.00 41 1013.7
20260504141011 64 251 1.0 3.0 0.00 0.00 0.00 44 1013.7
20260504140509 64 253 2.0 3.0 0.00 0.00 0.00 42 1013.8
20260504130509 62 256 1.0 5.0 0.00 0.00 0.00 52 1014.4
20260504110507 52 264 0.0 3.0 0.00 0.00 0.00 65 1015.0
20260504100507 47 256 0.0 2.0 0.00 0.00 0.00 67 1015.0
20260504081527 47 259 0.0 0.0 0.00 0.00 0.00 63 1014.6
20260504081010 47 259 0.0 0.0 0.00 0.00 0.00 63 1014.6
20260504080512 47 259 0.0 0.0 0.00 0.00 0.00 62 1014.7
20260504050507 43 289 0.0 0.0 0.00 0.00 0.00 69 1014.2
20260504050009 43 289 0.0 0.0 0.00 0.00 0.00 69 1014.2
20260504045504 43 289 0.0 0.0 0.00 0.00 0.00 69 1014.2
20260504045003 43 289 0.0 0.0 0.00 0.00 0.00 70 1014.1
20260504044515 43 289 0.0 0.0 0.00 0.00 0.00 71 1014.0
20260504044006 43 289 0.0 0.0 0.00 0.00 0.00 70 1014.0
20260504043506 43 289 0.0 0.0 0.00 0.00 0.00 70 1014.0
20260504043019 43 289 0.0 0.0 0.00 0.00 0.00 69 1013.9
20260504042508 43 289 0.0 0.0 0.00 0.00 0.00 69 1013.9
20260504042010 43 289 0.0 0.0 0.00 0.00 0.00 69 1013.8
20260504041532 43 289 0.0 0.0 0.00 0.00 0.00 70 1013.7
20260504041009 43 289 0.0 0.0 0.00 0.00 0.00 70 1013.8
20260504040509 44 289 0.0 0.0 0.00 0.00 0.00 69 1013.7
20260504040023 44 289 0.0 0.0 0.00 0.00 0.00 68 1013.7
20260504035508 44 289 0.0 0.0 0.00 0.00 0.00 68 1013.7
20260504035009 44 289 0.0 0.0 0.00 0.00 0.00 68 1013.7
20260504034512 44 289 0.0 0.0 0.00 0.00 0.00 67 1013.6
20260504034007 44 289 0.0 0.0 0.00 0.00 0.00 67 1013.6
20260504033504 44 289 0.0 0.0 0.00 0.00 0.00 66 1013.6
20260504033016 44 289 0.0 0.0 0.00 0.00 0.00 66 1013.7
20260504032507 45 289 0.0 0.0 0.00 0.00 0.00 66 1013.6
20260504032007 45 289 0.0 0.0 0.00 0.00 0.00 65 1013.6
20260504031518 45 289 0.0 0.0 0.00 0.00 0.00 65 1013.5
20260504031008 46 289 0.0 0.0 0.00 0.00 0.00 64 1013.5
20260504030507 46 289 0.0 0.0 0.00 0.00 0.00 63 1013.5
20260504030024 46 289 0.0 0.0 0.00 0.00 0.00 62 1013.4
20260504025510 47 262 0.0 0.0 0.00 0.00 0.00 60 1013.4
20260504025008 47 263 0.0 0.0 0.00 0.00 0.00 58 1013.4
20260504024526 47 262 0.0 0.0 0.00 0.00 0.00 55 1013.4
20260504024012 47 260 0.0 0.0 0.00 0.00 0.00 53 1013.5
20260504023504 47 260 0.0 0.0 0.00 0.00 0.00 55 1013.5
20260504023012 47 260 0.0 0.0 0.00 0.00 0.00 54 1013.5
20260504022506 47 260 0.0 0.0 0.00 0.00 0.00 55 1013.5
20260504022007 48 260 0.0 0.0 0.00 0.00 0.00 55 1013.5
20260504021519 48 260 0.0 0.0 0.00 0.00 0.00 53 1013.4
20260504021003 48 260 0.0 0.0 0.00 0.00 0.00 53 1013.5
20260504020507 48 260 0.0 0.0 0.00 0.00 0.00 53 1013.5
20260504020022 49 260 0.0 0.0 0.00 0.00 0.00 52 1013.5
20260504015508 49 260 0.0 0.0 0.00 0.00 0.00 51 1013.4
20260504015010 49 260 0.0 0.0 0.00 0.00 0.00 52 1013.4
20260504014528 49 260 0.0 0.0 0.00 0.00 0.00 50 1013.3
20260504014009 48 260 0.0 0.0 0.00 0.00 0.00 50 1013.3
20260504013508 48 260 0.0 0.0 0.00 0.00 0.00 53 1013.3
20260504013026 48 260 0.0 0.0 0.00 0.00 0.00 51 1013.2
20260504012511 49 260 0.0 0.0 0.00 0.00 0.00 51 1013.1
20260504012004 49 260 0.0 0.0 0.00 0.00 0.00 51 1013.1
20260504011514 49 260 0.0 0.0 0.00 0.00 0.00 51 1013.1
20260504011008 50 260 0.0 0.0 0.00 0.00 0.00 49 1013.0
20260504010509 51 260 0.0 0.0 0.00 0.00 0.00 48 1012.9
20260504010020 51 260 0.0 0.0 0.00 0.00 0.00 47 1012.9
20260504005507 52 260 0.0 0.0 0.00 0.00 0.00 45 1012.8
20260504005005 52 260 0.0 0.0 0.00 0.00 0.00 42 1012.7
20260504004525 53 260 0.0 0.0 0.00 0.00 0.00 42 1012.7
20260504004006 54 260 0.0 0.0 0.00 0.00 0.00 39 1012.6
20260504003511 54 260 0.0 0.0 0.00 0.00 0.00 39 1012.5
20260504003026 55 260 0.0 0.0 0.00 0.00 0.00 38 1012.4
20260504002509 55 260 0.0 0.0 0.00 0.00 0.00 36 1012.2
20260504002012 56 260 0.0 0.0 0.00 0.00 0.00 35 1012.1
20260504001531 56 260 0.0 0.0 0.00 0.00 0.00 35 1011.9
20260504001006 56 260 0.0 0.0 0.00 0.00 0.00 35 1011.9
20260504000507 56 259 0.0 0.0 0.00 0.00 0.00 34 1011.8
20260504000019 57 260 0.0 0.0 0.00 0.00 0.00 34 1011.8
20260503235510 57 260 0.0 0.0 0.00 0.00 0.00 33 1011.8
20260503235006 57 260 0.0 0.0 0.00 0.00 0.00 32 1011.7
20260503234526 58 259 0.0 2.0 0.00 0.00 0.00 32 1011.6
20260503234006 58 259 0.0 2.0 0.00 0.00 0.00 32 1011.6
20260503233508 58 271 0.0 1.0 0.00 0.00 0.00 31 1011.6
20260503233035 58 271 0.0 2.0 0.00 0.00 0.00 30 1011.5
20260503232509 58 271 0.0 3.0 0.00 0.00 0.00 31 1011.5
20260503232009 58 273 0.0 3.0 0.00 0.00 0.00 30 1011.5
20260503231525 59 265 0.0 3.0 0.00 0.00 0.00 31 1011.5
20260503231007 59 245 1.0 5.0 0.00 0.00 0.00 30 1011.5
20260503230508 59 252 1.0 5.0 0.00 0.00 0.00 29 1011.5
20260503230026 59 249 2.0 4.0 0.00 0.00 0.00 29 1011.4
20260503225506 59 267 1.0 4.0 0.00 0.00 0.00 29 1011.4
20260503225006 59 221 2.0 4.0 0.00 0.00 0.00 30 1011.4
20260503224520 59 262 1.0 4.0 0.00 0.00 0.00 29 1011.5
20260503224006 59 273 1.0 4.0 0.00 0.00 0.00 30 1011.5
20260503223503 59 287 1.0 4.0 0.00 0.00 0.00 29 1011.4
20260503223003 60 273 1.0 4.0 0.00 0.00 0.00 30 1011.4
20260503222503 60 237 1.0 3.0 0.00 0.00 0.00 30 1011.3
20260503222003 60 275 1.0 6.0 0.00 0.00 0.00 31 1011.4
20260503221512 60 257 1.0 6.0 0.00 0.00 0.00 30 1011.3
20260503221008 60 238 1.0 4.0 0.00 0.00 0.00 29 1011.4
20260503220502 60 231 1.0 3.0 0.00 0.00 0.00 29 1011.4
20260503220013 60 286 1.0 5.0 0.00 0.00 0.00 31 1011.5
20260503215507 60 266 2.0 5.0 0.00 0.00 0.00 28 1011.4
20260503215002 60 258 2.0 5.0 0.00 0.00 0.00 29 1011.5
20260503214512 60 256 3.0 5.0 0.00 0.00 0.00 29 1011.5
20260503214009 60 257 1.0 5.0 0.00 0.00 0.00 30 1011.5
20260503213503 60 246 2.0 6.0 0.00 0.00 0.00 29 1011.5
20260503213005 60 270 1.0 6.0 0.00 0.00 0.00 29 1011.4
20260503212503 60 273 3.0 5.0 0.00 0.00 0.00 28 1011.4
20260503212003 60 253 2.0 4.0 0.00 0.00 0.00 29 1011.3
20260503211508 60 255 1.0 5.0 0.00 0.00 0.00 29 1011.4
20260503211010 61 256 2.0 6.0 0.00 0.00 0.00 29 1011.5
20260503210506 61 238 3.0 6.0 0.00 0.00 0.00 28 1011.4
20260503210012 61 269 1.0 6.0 0.00 0.00 0.00 29 1011.3
20260503205508 60 240 2.0 6.0 0.00 0.00 0.00 30 1011.3